Starlink 35626

operational
NORAD ID: 66234 Int'l Des: 2025-244 Owner: SPXS Country: US Constellation: starlink
NOTLE

About Starlink 35626

Description loading...

Live Position

Loading 3D Globe...

Upcoming Passes

Altitude History

Altitude vs Time

uPlot chart will show altitude changes over time

Two-Line Element Set

1 66234C 25244AD 25301.73659722 .02288600 00000+0 33636-2 0 3015
2 66234 53.1569 134.0986 0010671 270.1147 322.0040 16.01972136 18
Epoch: Oct 28, 2025 • Age: 69 hours

Current Status

Altitude 236.8 km
Velocity 7.77 km/s
Sub-Earth Point 7.84°N, 134.6°E
Launch Date Oct 28, 2025
Age 2 days
Type internet

Technical Details

Classification Payload
Mass 575.00 kg
Dry Mass 530.00 kg
Total Mass 575.00 kg
Length 0.30 m
Diameter 4.10 m
Span 29.00 m
Shape Box + pan
Manufacturer SPXS
Bus Type Starlink V2MO
Phase Status In Orbit
Owner/State SPXS/US

Large Constellations

Loading constellations...